Location: ????????
(60.4333°N, 46.4710°E)
Time: 19:42:26
(UTC+00:00)

Landsat 5 - Pass Details

Date: 25 November 2020
Orbit: 528 x 653 km, 98.2° (Epoch: 16 January)

Event Time Altitude Azimuth Distance (km) Brightness Sun altitude
Exits shadow 14:23:37 10° 18° (NNE) 1,999 5.9 -16.0°
Reaches altitude 10° 14:23:40 10° 18° (NNE) 1,983 5.8 -16.0°
Maximum altitude 14:28:00 90° 165° (SSE) 637 3.5 -16.5°
Drops below altitude 10° 14:32:27 10° 199° (SSW) 2,034 6.6 -17.0°
Sets 14:34:41 0° 200° (SSW) 2,952 7.5 -17.3°
